SCP
0 0 0 0 0 0 0 0 0 0 0 0 0 0 0 0 0 0 0 0 0 0 0 0 0 0 0 0 0 0 0 0 0 0 0 0 0 0 0 0 0 0 0
1 0 0 0 0 0 0 0 0 0 0 0 0 0 0 0 0 0 0 0 0 0 0 0 0 0 0 0 0 0 0 0 0 0 0 0 0 0 0 0 0 0 0
1 1 0 0 0 0 0 0 0 0 0 0 0 0 0 0 0 0 0 0 0 0 0 0 0 0 0 0 0 0 0 0 0 0 0 0 0 0 0 0 0 0 0
1 1 1 0 0 0 0 0 0 0 0 0 0 0 0 0 0 0 0 0 0 0 0 0 0 0 0 0 0 0 0 0 0 0 0 0 0 0 0 0 0 0 0
1 1 1 1 0 0 0 0 0 0 0 0 0 0 0 0 0 0 0 0 0 0 0 0 0 0 0 0 0 0 0 0 0 0 0 0 0 0 0 0 0 0 0
1 2 1 1 0 0 0 0 0 0 0 0 0 0 0 0 0 0 0 0 0 0 0 0 0 0 0 0 0 0 0 0 0 0 0 0 0 0 0 0 0 0 0
1 1 1 1 0 0 0 0 0 0 0 0 0 0 0 0 0 0 0 0 0 0 0 0 0 0 0 0 0 0 0 0 0 0 0 0 0 0 0 0 0 0 0
1 1 1 1 0 0 0 0 0 0 0 0 0 0 0 0 0 0 0 0 0 0 0 0 0 0 0 0 0 0 0 0 0 -0 0 0 0 0 0 0 0 0 0
2 1 1 1 1 1 0 0 0 0 0 0 0 0 0 0 0 0 0 0 0 0 0 0 0 0 0 0 0 0 0 0 0 0 0 0 0 0 0 0 0 0 0
2 2 2 2 1 1 0 0 0 0 0 0 0 0 0 0 0 0 0 0 0 0 0 0 0 0 0 0 0 0 0 0 0 0 0 0 0 0 0 0 0 0 0
2 2 2 2 2 1 1 0 0 0 0 0 0 0 0 0 0 0 0 0 0 0 0 0 0 0 0 0 0 0 0 0 0 0 0 0 0 0 0 0 0 0 0
1 1 1 1 1 1 0 0 0 0 0 0 0 0 0 0 0 0 0 0 0 0 0 0 0 0 0 0 0 0 0 0 0 0 0 0 0 0 0 0 0 0 0
1 0 0 0 1 0 0 0 0 0 0 0 0 0 0 0 0 0 0 0 0 0 0 0 0 0 0 0 0 0 0 0 0 0 0 0 0 0 0 0 0 0 0
0 0 0 0 0 0 0 0 0 0 0 0 0 0 0 0 0 0 0 0 0 0 0 0 0 0 0 0 0 0 0 0 0 0 0 0 0 0 0 0 0 0 0
0 0 0 0 0 0 0 0 0 0 0 0 0 0 0 0 0 0 0 0 0 0 0 0 0 0 0 0 0 0 0 0 0 0 0 0 0 0 0 0 0 0 0
0 0 0 0 0 0 0 0 0 0 0 0 0 0 0 0 0 0 0 0 0 0 0 0 0 0 0 0 0 0 0 0 0 0 0 0 0 0 0 0 0 0 0
0 0 0 0 0 0 0 0 0 0 0 0 0 0 0 0 0 0 0 0 0 0 0 0 0 0 0 0 0 0 0 0 0 0 0 0 0 0 0 0 0 0 0
0 0 0 0 0 0 0 0 0 0 0 0 0 0 0 0 0 0 0 0 0 0 0 0 0 0 0 0 0 0 0 0 0 0 0 0 0 0 0 0 0 0 0
0 0 0 0 0 0 0 0 0 0 0 0 0 0 0 0 0 0 0 0 0 0 0 0 0 0 0 0 0 0 0 0 0 0 0 0 0 0 0 0 0 0 0
0 0 0 0 0 0 0 0 0 0 0 0 0 0 0 0 0 0 0 0 0 0 0 0 0 0 0 0 0 0 0 0 0 0 0 0 0 0 0 0 0 0 0
0 0 0 0 0 0 0 0 0 0 0 0 0 0 0 0 0 0 0 0 0 0 0 0 0 0 0 0 0 0 0 0 0 0 0 0 0 0 0 0 0 0 0
0 0 0 0 0 0 0 0 0 0 0 0 0 0 0 0 0 0 0 0 0 0 0 0 0 0 0 0 0 0 0 0 0 0 0 0 0 0 0 0 0 0 0
0 0 0 0 0 0 0 0 0 0 0 0 0 0 0 0 0 0 0 0 0 0 0 0 0 0 0 0 0 0 0 0 0 0 0 0 0 0 0 0 0 0 0
0 0 0 0 0 0 0 0 0 0 0 0 0 0 0 0 0 0 0 0 0 0 0 0 0 0 0 0 0 0 0 0 0 0 0 0 0 0 0 0 0 0 0
0 0 0 0 0 0 0 0 0 0 0 0 0 0 0 0 0 0 0 0 0 0 0 0 0 0 0 0 0 0 0 0 0 0 0 0 0 0 0 0 0 0 0
0 0 0 0 0 0 0 0 0 0 0 0 0 0 0 0 0 0 0 0 0 0 0 0 0 0 0 0 0 0 0 0 0 0 0 0 0 0 0 0 0 0 0
Wind_Speed_500mb
56 54 54 52 50 45 42 42 47 47 45 40 40 36 32 34 35 41 32 33 27 18 14 10 14 18 20 24 24 28 30 32 30 27 29 28 28 29 30 28 27 27 26
59 59 58 56 53 50 45 45 45 46 44 42 41 37 34 33 23 33 34 39 31 22 18 14 12 21 25 26 28 31 32 32 32 29 27 28 28 29 29 28 27 26 24
65 64 62 60 57 53 50 49 48 46 44 42 40 40 39 36 31 23 29 39 35 28 20 17 13 20 24 30 33 32 31 34 32 31 28 28 29 29 27 26 25 23 21
65 63 64 63 60 58 55 54 51 52 47 47 44 43 44 41 33 36 36 41 42 35 25 20 19 23 29 28 34 33 33 34 35 33 29 29 28 28 27 26 24 21 19
65 62 62 61 62 61 59 57 55 56 55 52 47 46 45 47 37 41 41 42 46 39 29 23 24 30 33 32 33 35 35 36 36 30 31 30 30 29 28 25 23 20 17
62 62 61 60 57 62 64 62 60 58 59 50 50 50 45 50 47 47 52 49 48 41 33 28 29 31 37 36 35 37 38 39 37 33 30 32 32 29 27 26 23 21 17
46 51 58 60 61 61 66 62 60 64 59 51 52 51 48 47 47 47 55 51 52 46 40 32 32 34 40 39 34 37 41 41 37 30 34 37 31 31 29 26 23 20 15
43 44 48 54 58 60 64 66 71 69 61 58 61 51 35 40 51 48 49 53 59 53 48 40 39 39 36 42 42 41 42 41 39 38 39 35 34 31 28 26 23 19 14
58 49 49 54 54 58 67 74 73 64 61 64 68 51 23 28 47 55 56 56 56 59 55 49 46 44 43 45 46 47 45 42 41 39 40 36 34 31 29 27 24 19 15
60 53 55 56 59 61 70 74 71 71 70 64 66 77 59 37 29 23 56 63 60 64 62 59 54 49 49 49 49 48 55 50 44 41 36 35 34 32 30 26 21 20 21
56 56 60 66 66 68 70 71 67 73 76 70 70 76 80 68 52 40 38 58 71 74 76 70 61 54 54 55 54 52 53 53 51 45 35 35 34 32 26 25 26 25 23
49 53 57 64 70 73 74 74 68 66 70 73 75 79 81 83 72 61 51 51 60 87 85 81 73 64 59 60 59 56 54 53 51 49 42 39 36 32 34 34 31 32 27
55 62 61 59 67 69 70 71 74 71 68 83 86 81 78 77 77 74 70 59 54 67 74 89 78 70 62 61 63 60 57 55 53 49 50 47 47 44 43 38 40 34 30
57 58 55 58 59 61 64 66 70 70 71 72 74 76 81 74 71 72 72 67 49 58 75 84 89 80 72 64 62 62 61 59 58 57 58 57 53 50 47 45 41 40 41
35 45 46 51 56 58 64 67 70 68 69 70 72 76 77 70 72 75 72 72 74 47 73 79 83 91 79 73 68 67 64 65 64 64 62 61 57 55 51 46 46 46 46
33 40 41 47 50 54 54 61 66 63 66 66 66 71 71 69 74 71 71 71 78 77 63 83 82 95 90 83 76 73 69 73 69 65 64 63 58 53 54 52 53 51 48
32 36 38 45 53 49 55 61 62 65 69 69 72 73 72 67 70 71 71 70 71 85 80 67 87 93 93 91 88 81 74 79 75 69 65 62 62 61 58 59 59 57 56
29 35 36 41 45 51 55 62 67 66 70 74 77 72 72 68 70 69 69 69 70 79 90 88 93 93 101 98 98 89 84 82 79 76 72 68 67 67 66 71 65 55 52
25 28 41 40 34 45 45 52 60 54 63 72 76 71 72 68 61 61 70 71 72 77 85 98 97 100 107 104 104 94 92 88 83 79 77 75 76 78 78 76 68 54 49
32 32 32 44 44 41 47 47 57 64 54 60 69 70 67 64 68 71 71 64 66 60 84 103 103 101 103 105 99 104 93 89 91 87 86 82 83 84 83 75 63 52 48
33 36 38 37 43 45 43 49 53 65 66 61 59 61 65 68 68 67 71 73 70 63 71 90 96 100 109 110 110 106 101 99 93 92 87 86 87 82 71 61 50 43 41
34 35 36 38 40 47 43 47 52 56 73 69 65 61 67 70 73 70 65 61 58 65 66 95 106 118 114 115 116 110 106 103 93 93 85 83 78 70 59 51 46 45 40
39 38 36 34 36 44 52 46 51 54 65 79 72 65 59 60 57 58 58 54 51 59 67 73 102 113 114 116 117 118 111 110 116 105 92 79 72 62 55 53 48 43 36
42 43 39 36 37 36 45 53 49 55 66 62 72 64 58 54 50 48 49 52 51 61 61 71 97 101 107 114 124 128 113 115 110 94 95 84 78 67 60 53 44 38 38
43 41 40 40 38 38 40 51 55 54 67 59 50 57 57 53 47 48 53 55 50 51 57 68 75 84 95 108 124 126 110 118 102 87 87 80 80 68 58 52 42 37 37
46 44 43 39 40 43 42 40 59 57 67 64 64 66 67 57 53 52 51 54 54 52 55 63 78 92 100 109 116 119 110 118 126 84 95 85 69 73 49 51 43 37 31
Wind_Direction_500mb
217 215 216 216 216 217 211 206 204 207 210 220 224 224 223 225 239 225 225 217 215 219 222 210 201 210 220 209 194 180 169 167 172 166 164 163 153 146 143 140 134 130 130
223 221 220 221 220 220 218 216 215 214 220 223 230 231 230 242 248 213 216 216 221 219 217 237 206 214 215 212 188 187 178 177 174 175 172 161 155 153 150 148 145 143 138
228 226 224 224 225 224 222 222 221 220 223 225 231 226 228 231 227 207 224 226 223 222 223 228 222 215 212 201 196 192 184 177 178 180 170 166 163 161 158 155 153 151 147
233 233 231 228 227 227 227 228 225 223 226 227 230 229 230 234 230 238 221 226 226 225 234 221 224 215 215 209 198 196 190 179 184 186 178 173 174 172 165 166 164 163 164
234 235 236 234 229 230 231 232 231 226 226 224 229 233 240 235 238 238 238 227 227 227 232 234 234 217 209 209 209 200 195 189 196 191 181 178 185 175 176 175 176 175 176
238 238 239 238 234 231 234 233 233 231 229 224 231 232 241 239 239 241 245 232 226 228 225 232 235 226 205 207 215 203 200 199 198 193 186 189 189 184 186 186 186 187 187
234 240 240 238 235 233 235 236 236 233 228 220 229 229 237 244 245 244 239 226 226 226 225 229 235 227 209 207 211 203 208 205 199 195 193 198 190 193 193 191 193 191 194
233 234 234 236 238 237 234 234 235 232 226 224 222 226 222 232 237 243 234 231 227 227 226 227 230 225 224 206 207 210 210 208 200 202 201 194 199 199 195 194 193 199 209
233 231 230 230 234 237 238 238 238 235 227 231 223 214 201 217 231 238 232 225 225 223 226 229 231 228 227 221 213 213 205 208 204 208 202 199 203 201 195 196 203 212 229
240 237 238 238 240 240 244 247 250 241 233 229 224 222 224 229 202 214 228 227 229 228 227 231 232 230 227 226 224 221 205 207 208 208 206 203 204 197 198 203 215 223 236
245 243 243 244 245 245 246 247 250 243 237 229 229 227 223 228 230 236 218 228 228 233 231 231 232 231 228 227 226 220 212 209 210 211 207 207 202 203 207 219 218 236 246
239 239 246 249 246 246 246 247 248 245 243 230 234 234 230 225 224 226 229 240 238 232 232 228 229 228 230 228 226 222 217 217 216 209 207 207 208 215 221 220 232 241 246
240 242 246 249 247 245 247 248 245 243 244 235 236 234 234 237 239 242 233 233 227 230 232 229 229 227 228 228 228 223 218 217 219 213 208 212 216 220 221 229 236 239 245
239 240 240 241 245 246 249 247 244 244 245 243 242 240 236 236 241 240 239 224 220 223 229 232 226 224 222 222 226 221 219 217 219 218 215 216 219 223 228 233 240 239 242
248 248 244 235 235 239 246 247 241 242 244 240 241 240 240 239 247 243 242 239 229 217 222 232 230 225 222 219 218 216 217 215 217 220 220 223 224 229 235 241 243 243 248
252 252 249 243 241 239 239 242 245 246 244 243 238 237 231 246 251 245 244 246 242 231 225 231 231 226 224 219 218 217 218 214 217 221 224 226 228 232 237 239 242 244 249
261 257 255 249 243 244 242 241 241 247 247 246 242 237 241 246 247 243 249 246 249 237 227 228 231 229 225 219 220 216 218 216 219 223 225 226 229 232 237 245 245 253 255
280 268 263 256 248 243 243 243 244 247 243 241 241 235 244 246 242 245 250 250 250 250 239 229 226 226 223 221 221 218 217 217 219 223 225 224 230 236 240 244 246 247 247
282 271 260 255 256 241 248 251 238 242 242 239 238 243 246 238 238 242 250 252 257 257 245 234 223 226 220 212 213 217 216 215 216 221 223 228 231 235 240 241 245 243 248
290 280 277 260 253 254 248 249 245 240 241 242 241 244 242 237 244 247 253 251 252 249 232 227 230 227 212 208 209 214 208 210 212 212 219 224 229 232 234 239 237 241 250
293 286 284 284 263 255 258 249 244 244 236 238 237 242 242 243 245 245 252 251 250 253 250 236 225 220 209 202 204 204 210 206 206 212 211 218 223 228 229 229 231 241 259
303 292 281 288 279 261 255 265 256 249 244 237 240 241 241 243 243 248 247 247 249 248 250 235 228 225 218 210 205 206 208 203 197 204 206 211 217 221 223 223 227 234 238
313 303 295 285 284 268 255 257 256 255 251 246 240 247 242 237 241 244 242 243 238 247 255 253 240 232 226 219 213 208 210 216 212 210 209 209 213 212 212 219 224 233 237
319 313 304 296 288 279 268 251 251 261 251 251 243 247 244 242 238 237 243 242 241 236 249 253 248 246 246 234 228 223 212 212 210 208 208 202 204 208 214 220 227 229 227
320 316 310 304 295 284 275 253 248 252 252 250 240 245 244 239 234 241 239 246 242 238 248 256 251 251 256 249 233 215 209 208 204 206 206 208 203 203 209 220 224 224 213
315 312 311 308 302 290 283 270 247 247 244 236 232 238 239 242 235 241 244 244 243 242 249 253 248 244 244 241 247 229 223 215 211 200 204 202 204 206 199 212 217 211 197
Wind_Speed_850mb
56 54 54 52 50 45 42 42 47 47 45 40 40 36 32 34 35 41 32 33 27 18 14 10 14 18 20 24 24 28 30 32 30 27 29 28 28 29 30 28 27 27 26
59 59 58 56 53 50 45 45 45 46 44 42 41 37 34 33 23 33 34 39 31 22 18 14 12 21 25 26 28 31 32 32 32 29 27 28 28 29 29 28 27 26 24
65 64 62 60 57 53 50 49 48 46 44 42 40 40 39 36 31 23 29 39 35 28 20 17 13 20 24 30 33 32 31 34 32 31 28 28 29 29 27 26 25 23 21
65 63 64 63 60 58 55 54 51 52 47 47 44 43 44 41 33 36 36 41 42 35 25 20 19 23 29 28 34 33 33 34 35 33 29 29 28 28 27 26 24 21 19
65 62 62 61 62 61 59 57 55 56 55 52 47 46 45 47 37 41 41 42 46 39 29 23 24 30 33 32 33 35 35 36 36 30 31 30 30 29 28 25 23 20 17
62 62 61 60 57 62 64 62 60 58 59 50 50 50 45 50 47 47 52 49 48 41 33 28 29 31 37 36 35 37 38 39 37 33 30 32 32 29 27 26 23 21 17
46 51 58 60 61 61 66 62 60 64 59 51 52 51 48 47 47 47 55 51 52 46 40 32 32 34 40 39 34 37 41 41 37 30 34 37 31 31 29 26 23 20 15
43 44 48 54 58 60 64 66 71 69 61 58 61 51 35 40 51 48 49 53 59 53 48 40 39 39 36 42 42 41 42 41 39 38 39 35 34 31 28 26 23 19 14
58 49 49 54 54 58 67 74 73 64 61 64 68 51 23 28 47 55 56 56 56 59 55 49 46 44 43 45 46 47 45 42 41 39 40 36 34 31 29 27 24 19 15
60 53 55 56 59 61 70 74 71 71 70 64 66 77 59 37 29 23 56 63 60 64 62 59 54 49 49 49 49 48 55 50 44 41 36 35 34 32 30 26 21 20 21
56 56 60 66 66 68 70 71 67 73 76 70 70 76 80 68 52 40 38 58 71 74 76 70 61 54 54 55 54 52 53 53 51 45 35 35 34 32 26 25 26 25 23
49 53 57 64 70 73 74 74 68 66 70 73 75 79 81 83 72 61 51 51 60 87 85 81 73 64 59 60 59 56 54 53 51 49 42 39 36 32 34 34 31 32 27
55 62 61 59 67 69 70 71 74 71 68 83 86 81 78 77 77 74 70 59 54 67 74 89 78 70 62 61 63 60 57 55 53 49 50 47 47 44 43 38 40 34 30
57 58 55 58 59 61 64 66 70 70 71 72 74 76 81 74 71 72 72 67 49 58 75 84 89 80 72 64 62 62 61 59 58 57 58 57 53 50 47 45 41 40 41
35 45 46 51 56 58 64 67 70 68 69 70 72 76 77 70 72 75 72 72 74 47 73 79 83 91 79 73 68 67 64 65 64 64 62 61 57 55 51 46 46 46 46
33 40 41 47 50 54 54 61 66 63 66 66 66 71 71 69 74 71 71 71 78 77 63 83 82 95 90 83 76 73 69 73 69 65 64 63 58 53 54 52 53 51 48
32 36 38 45 53 49 55 61 62 65 69 69 72 73 72 67 70 71 71 70 71 85 80 67 87 93 93 91 88 81 74 79 75 69 65 62 62 61 58 59 59 57 56
29 35 36 41 45 51 55 62 67 66 70 74 77 72 72 68 70 69 69 69 70 79 90 88 93 93 101 98 98 89 84 82 79 76 72 68 67 67 66 71 65 55 52
25 28 41 40 34 45 45 52 60 54 63 72 76 71 72 68 61 61 70 71 72 77 85 98 97 100 107 104 104 94 92 88 83 79 77 75 76 78 78 76 68 54 49
32 32 32 44 44 41 47 47 57 64 54 60 69 70 67 64 68 71 71 64 66 60 84 103 103 101 103 105 99 104 93 89 91 87 86 82 83 84 83 75 63 52 48
33 36 38 37 43 45 43 49 53 65 66 61 59 61 65 68 68 67 71 73 70 63 71 90 96 100 109 110 110 106 101 99 93 92 87 86 87 82 71 61 50 43 41
34 35 36 38 40 47 43 47 52 56 73 69 65 61 67 70 73 70 65 61 58 65 66 95 106 118 114 115 116 110 106 103 93 93 85 83 78 70 59 51 46 45 40
39 38 36 34 36 44 52 46 51 54 65 79 72 65 59 60 57 58 58 54 51 59 67 73 102 113 114 116 117 118 111 110 116 105 92 79 72 62 55 53 48 43 36
42 43 39 36 37 36 45 53 49 55 66 62 72 64 58 54 50 48 49 52 51 61 61 71 97 101 107 114 124 128 113 115 110 94 95 84 78 67 60 53 44 38 38
43 41 40 40 38 38 40 51 55 54 67 59 50 57 57 53 47 48 53 55 50 51 57 68 75 84 95 108 124 126 110 118 102 87 87 80 80 68 58 52 42 37 37
46 44 43 39 40 43 42 40 59 57 67 64 64 66 67 57 53 52 51 54 54 52 55 63 78 92 100 109 116 119 110 118 126 84 95 85 69 73 49 51 43 37 31
Wind_Direction_850mb
217 215 216 216 216 217 211 206 204 207 210 220 224 224 223 225 239 225 225 217 215 219 222 210 201 210 220 209 194 180 169 167 172 166 164 163 153 146 143 140 134 130 130
223 221 220 221 220 220 218 216 215 214 220 223 230 231 230 242 248 213 216 216 221 219 217 237 206 214 215 212 188 187 178 177 174 175 172 161 155 153 150 148 145 143 138
228 226 224 224 225 224 222 222 221 220 223 225 231 226 228 231 227 207 224 226 223 222 223 228 222 215 212 201 196 192 184 177 178 180 170 166 163 161 158 155 153 151 147
233 233 231 228 227 227 227 228 225 223 226 227 230 229 230 234 230 238 221 226 226 225 234 221 224 215 215 209 198 196 190 179 184 186 178 173 174 172 165 166 164 163 164
234 235 236 234 229 230 231 232 231 226 226 224 229 233 240 235 238 238 238 227 227 227 232 234 234 217 209 209 209 200 195 189 196 191 181 178 185 175 176 175 176 175 176
238 238 239 238 234 231 234 233 233 231 229 224 231 232 241 239 239 241 245 232 226 228 225 232 235 226 205 207 215 203 200 199 198 193 186 189 189 184 186 186 186 187 187
234 240 240 238 235 233 235 236 236 233 228 220 229 229 237 244 245 244 239 226 226 226 225 229 235 227 209 207 211 203 208 205 199 195 193 198 190 193 193 191 193 191 194
233 234 234 236 238 237 234 234 235 232 226 224 222 226 222 232 237 243 234 231 227 227 226 227 230 225 224 206 207 210 210 208 200 202 201 194 199 199 195 194 193 199 209
233 231 230 230 234 237 238 238 238 235 227 231 223 214 201 217 231 238 232 225 225 223 226 229 231 228 227 221 213 213 205 208 204 208 202 199 203 201 195 196 203 212 229
240 237 238 238 240 240 244 247 250 241 233 229 224 222 224 229 202 214 228 227 229 228 227 231 232 230 227 226 224 221 205 207 208 208 206 203 204 197 198 203 215 223 236
245 243 243 244 245 245 246 247 250 243 237 229 229 227 223 228 230 236 218 228 228 233 231 231 232 231 228 227 226 220 212 209 210 211 207 207 202 203 207 219 218 236 246
239 239 246 249 246 246 246 247 248 245 243 230 234 234 230 225 224 226 229 240 238 232 232 228 229 228 230 228 226 222 217 217 216 209 207 207 208 215 221 220 232 241 246
240 242 246 249 247 245 247 248 245 243 244 235 236 234 234 237 239 242 233 233 227 230 232 229 229 227 228 228 228 223 218 217 219 213 208 212 216 220 221 229 236 239 245
239 240 240 241 245 246 249 247 244 244 245 243 242 240 236 236 241 240 239 224 220 223 229 232 226 224 222 222 226 221 219 217 219 218 215 216 219 223 228 233 240 239 242
248 248 244 235 235 239 246 247 241 242 244 240 241 240 240 239 247 243 242 239 229 217 222 232 230 225 222 219 218 216 217 215 217 220 220 223 224 229 235 241 243 243 248
252 252 249 243 241 239 239 242 245 246 244 243 238 237 231 246 251 245 244 246 242 231 225 231 231 226 224 219 218 217 218 214 217 221 224 226 228 232 237 239 242 244 249
261 257 255 249 243 244 242 241 241 247 247 246 242 237 241 246 247 243 249 246 249 237 227 228 231 229 225 219 220 216 218 216 219 223 225 226 229 232 237 245 245 253 255
280 268 263 256 248 243 243 243 244 247 243 241 241 235 244 246 242 245 250 250 250 250 239 229 226 226 223 221 221 218 217 217 219 223 225 224 230 236 240 244 246 247 247
282 271 260 255 256 241 248 251 238 242 242 239 238 243 246 238 238 242 250 252 257 257 245 234 223 226 220 212 213 217 216 215 216 221 223 228 231 235 240 241 245 243 248
290 280 277 260 253 254 248 249 245 240 241 242 241 244 242 237 244 247 253 251 252 249 232 227 230 227 212 208 209 214 208 210 212 212 219 224 229 232 234 239 237 241 250
293 286 284 284 263 255 258 249 244 244 236 238 237 242 242 243 245 245 252 251 250 253 250 236 225 220 209 202 204 204 210 206 206 212 211 218 223 228 229 229 231 241 259
303 292 281 288 279 261 255 265 256 249 244 237 240 241 241 243 243 248 247 247 249 248 250 235 228 225 218 210 205 206 208 203 197 204 206 211 217 221 223 223 227 234 238
313 303 295 285 284 268 255 257 256 255 251 246 240 247 242 237 241 244 242 243 238 247 255 253 240 232 226 219 213 208 210 216 212 210 209 209 213 212 212 219 224 233 237
319 313 304 296 288 279 268 251 251 261 251 251 243 247 244 242 238 237 243 242 241 236 249 253 248 246 246 234 228 223 212 212 210 208 208 202 204 208 214 220 227 229 227
320 316 310 304 295 284 275 253 248 252 252 250 240 245 244 239 234 241 239 246 242 238 248 256 251 251 256 249 233 215 209 208 204 206 206 208 203 203 209 220 224 224 213
315 312 311 308 302 290 283 270 247 247 244 236 232 238 239 242 235 241 244 244 243 242 249 253 248 244 244 241 247 229 223 215 211 200 204 202 204 206 199 212 217 211 197